Wind_Speed
9 9 8 8 8 9 10 10 8 8 9 9 9 10 10 11 10 10 9 9 8 8 9 8 8 8 9 9 8 8 9 9 9 9 9 9 9 9 8 8 7 8 8
9 9 9 9 9 10 10 10 8 8 9 10 11 12 10 10 11 10 10 10 9 9 9 8 9 9 9 9 9 9 10 10 9 9 9 9 10 10 10 10 9 9 10
10 10 10 9 9 9 9 9 8 9 10 11 12 11 9 10 10 10 11 10 10 10 9 9 9 10 10 10 10 10 10 10 10 10 10 10 10 11 11 11 10 10 10
11 12 11 10 9 9 9 9 9 10 11 11 11 11 11 10 10 11 12 12 12 11 10 10 10 10 10 10 10 10 10 10 11 11 11 11 11 11 12 12 11 11 11
13 13 12 11 10 10 10 9 10 11 11 11 11 12 12 11 11 12 12 12 12 11 11 11 11 11 11 11 11 11 11 11 11 11 12 12 13 13 12 13 13 13 13
13 13 13 11 11 11 11 11 11 12 13 13 13 12 12 13 12 12 12 12 12 12 12 12 12 12 12 12 12 12 12 12 12 12 12 12 13 14 14 14 14 15 15
13 13 13 12 12 12 12 13 12 13 13 14 14 13 12 12 13 13 13 13 13 13 13 13 13 13 13 13 13 13 13 13 13 13 13 13 13 13 14 14 14 15 16
13 13 13 13 13 13 14 15 15 14 13 14 13 13 13 13 14 14 14 14 13 13 14 14 15 15 14 14 14 14 14 14 14 14 14 14 14 14 15 15 15 15 16
15 15 15 15 15 15 15 15 16 16 15 14 13 13 13 14 15 15 15 14 14 14 14 15 16 16 15 15 14 15 14 15 15 16 16 16 15 15 16 16 17 16 16
16 16 16 16 16 16 16 16 16 16 16 15 14 14 14 15 16 16 16 17 16 15 15 16 16 16 16 15 15 16 16 16 16 17 17 17 17 17 17 17 17 17 16
16 16 16 16 16 16 17 16 16 16 16 16 16 16 16 17 17 17 18 18 16 16 16 16 16 16 16 16 16 16 16 16 17 17 18 18 18 18 18 17 17 17 17
18 17 17 17 17 17 18 17 16 16 17 17 17 18 18 18 18 18 17 17 17 16 17 17 16 16 16 16 17 16 17 17 18 18 19 19 19 18 18 18 18 18 18
18 17 17 17 17 17 18 17 18 18 18 19 19 19 19 18 17 17 17 17 17 17 18 18 18 17 17 16 17 17 18 18 18 19 19 19 19 18 18 18 18 18 19
18 18 18 18 18 18 19 20 19 20 20 21 20 19 19 18 18 18 18 17 18 19 19 19 18 17 17 17 18 18 18 19 19 19 19 19 19 18 19 19 19 19 19
20 20 20 20 20 20 21 21 21 21 21 21 21 20 20 19 18 18 19 18 19 19 20 19 18 18 18 18 19 19 19 19 19 20 20 20 19 19 19 19 19 19 19
23 23 22 23 23 23 23 23 23 23 22 22 22 22 21 20 19 19 19 19 20 20 20 19 19 19 18 19 19 19 20 20 20 21 21 20 20 19 20 20 20 20 20
24 25 25 25 25 25 24 24 23 23 23 23 22 23 23 22 21 21 20 20 21 21 20 20 19 19 19 19 20 20 21 21 22 22 21 20 20 20 20 20 20 20 20
25 25 25 26 26 25 25 25 24 24 23 23 23 23 24 23 22 22 21 21 22 22 21 20 20 20 20 20 20 21 21 21 21 21 22 21 21 21 20 20 21 21 22
25 25 26 27 27 26 25 25 25 24 24 23 23 23 23 23 23 23 23 23 23 23 22 22 21 21 21 20 21 21 22 22 22 22 22 22 21 21 21 21 21 21 22
25 26 26 26 27 27 26 25 25 25 24 24 23 24 24 24 25 24 23 23 23 23 22 22 22 22 22 22 22 23 23 23 22 22 22 22 22 22 22 21 21 22 23
27 27 27 26 26 26 26 26 26 25 24 24 23 24 24 24 25 25 24 23 23 23 22 22 21 22 23 23 23 23 23 23 23 22 22 22 23 23 23 23 23 23 23
27 28 27 27 27 26 26 25 25 25 24 24 24 24 25 25 24 24 24 23 22 23 22 22 22 22 23 24 24 24 24 24 24 24 24 23 23 24 24 24 24 24 23
26 27 27 27 27 27 27 27 26 26 25 25 25 25 25 25 25 25 24 23 23 23 23 24 23 23 23 24 25 25 26 25 25 25 25 25 24 24 24 24 24 24 24
25 26 27 28 28 28 27 28 27 27 26 26 25 24 24 24 24 25 25 25 25 25 25 25 25 25 25 24 24 25 25 25 26 26 26 26 25 25 25 25 25 25 25
26 26 26 27 27 27 26 26 26 27 26 26 25 25 25 25 24 24 24 25 25 26 25 25 25 25 25 25 25 25 25 25 26 26 26 26 25 25 25 25 26 26 27
26 26 26 26 27 27 26 26 26 26 25 25 24 25 26 26 25 25 25 25 26 26 25 26 25 26 26 26 26 26 26 26 26 26 26 26 26 26 26 26 27 27 27
Wind_Direction
302 304 311 318 321 325 330 333 337 328 326 324 320 314 309 311 313 314 323 321 322 320 317 317 317 316 316 317 320 320 320 314 313 312 308 304 304 308 304 295 287 287 288
291 297 300 303 310 316 320 323 321 326 324 322 320 313 301 308 305 303 309 313 313 314 311 309 313 315 315 313 312 317 320 317 314 311 307 301 299 299 299 295 287 285 283
285 289 292 292 299 306 312 316 316 322 322 320 321 314 306 312 313 308 306 310 311 311 308 306 310 314 313 312 314 316 315 315 315 309 303 298 294 294 296 296 291 287 285
287 288 285 284 290 295 300 304 304 316 318 316 318 319 314 309 308 308 306 307 308 307 304 304 307 309 310 310 311 314 313 313 311 307 303 299 301 298 297 298 293 289 286
284 282 280 279 284 288 291 296 303 309 310 313 316 315 316 312 307 306 304 303 305 302 299 296 299 303 303 304 306 310 311 311 310 307 303 300 301 301 300 297 292 288 286
279 273 273 277 284 286 286 292 301 303 304 308 313 309 308 306 306 306 301 298 299 300 298 298 298 300 300 301 302 306 307 306 308 306 304 302 299 295 297 297 294 291 287
271 270 273 278 283 285 286 292 293 292 295 300 303 304 302 302 302 303 296 297 296 296 296 298 300 299 298 297 298 300 303 302 302 301 302 304 302 298 298 298 298 296 293
265 267 273 276 281 284 287 286 287 284 292 298 302 302 298 300 300 298 294 294 293 291 292 296 297 298 298 297 297 300 298 297 298 300 300 301 301 298 298 299 298 296 293
263 265 268 275 278 282 285 283 285 282 289 296 299 299 298 297 297 295 294 292 292 287 290 294 294 296 297 296 297 300 297 298 298 298 299 300 300 299 299 298 296 295 291
266 267 271 274 276 280 284 288 288 284 286 292 294 294 295 296 295 293 291 291 292 289 289 293 295 294 294 294 297 299 297 298 298 297 297 298 298 299 299 297 295 293 290
268 270 272 272 274 279 283 284 288 285 287 291 291 291 291 294 295 293 290 289 290 290 289 290 291 292 293 292 292 294 294 296 296 296 296 296 298 298 298 296 294 293 291
268 270 272 273 275 280 285 283 283 285 288 288 287 288 288 292 293 293 291 287 286 288 289 289 289 289 289 288 289 292 292 293 294 294 294 295 297 295 295 294 293 294 293
268 269 270 273 276 278 282 283 284 284 288 287 286 286 287 290 292 294 291 287 287 289 289 289 287 287 286 287 289 291 293 293 294 295 295 295 294 294 294 294 293 294 294
267 269 271 273 278 279 280 278 281 284 287 287 285 283 284 287 291 292 290 288 289 289 290 290 287 287 286 286 288 290 292 294 294 295 295 294 291 292 292 292 293 294 295
268 269 272 274 277 280 279 278 279 280 283 283 281 281 282 285 287 290 290 288 289 291 290 287 285 283 283 286 289 290 292 293 294 294 294 293 290 289 290 291 292 294 295
268 270 273 274 275 277 278 278 278 278 279 282 279 281 283 284 286 287 288 288 289 290 290 286 285 282 282 286 289 290 291 293 294 294 296 293 291 290 291 291 291 291 293
269 269 272 274 275 275 277 278 278 277 280 281 281 282 283 282 282 282 283 282 285 288 287 286 285 283 283 287 288 290 292 293 295 296 296 294 291 290 290 291 291 291 291
268 270 273 274 274 275 278 278 276 277 279 280 284 283 280 278 280 279 279 280 282 284 282 281 281 282 283 285 287 289 292 293 294 294 295 293 291 291 290 290 291 291 292
269 271 273 273 272 274 278 278 277 278 278 280 282 284 281 279 279 277 277 278 279 281 280 277 279 279 283 285 285 288 290 291 293 294 294 293 292 290 290 292 292 292 292
268 269 273 274 273 272 274 276 276 277 277 278 280 281 279 278 278 277 276 276 277 279 281 278 279 280 282 285 286 285 286 288 291 294 295 294 292 291 292 293 294 294 294
266 268 271 272 271 270 272 276 275 275 275 278 279 281 280 280 279 277 275 274 278 278 281 281 280 281 283 284 286 285 285 286 289 291 294 294 293 290 291 292 293 294 294
265 266 269 270 270 271 273 275 274 273 274 276 278 279 281 280 279 277 274 275 278 279 281 282 282 282 283 283 283 285 287 287 288 289 290 290 292 291 290 291 293 293 293
264 264 265 267 269 270 272 272 274 272 274 275 277 279 280 278 276 276 275 276 277 278 279 280 281 282 282 282 283 286 288 287 286 286 287 288 289 290 291 293 295 294 295
264 265 266 266 267 268 270 271 273 272 273 276 275 276 278 278 278 278 278 277 276 276 278 279 279 280 281 282 284 287 287 287 287 288 288 289 289 290 290 292 293 294 294
262 266 268 266 267 269 271 272 273 272 272 274 272 272 275 277 277 277 278 277 277 279 278 278 278 278 279 282 283 285 286 286 286 287 289 289 290 290 290 291 292 293 294
264 266 268 268 270 270 271 272 273 272 274 275 274 274 275 276 276 277 278 278 278 279 280 281 280 279 280 282 283 284 285 285 286 287 288 287 288 289 290 290 291 292 293
Height
5880 5880 5879 5879 5878 5877 5876 5875 5874 5873 5871 5870 5869 5869 5867 5866 5865 5864 5863 5862 5861 5860 5859 5858 5857 5856 5855 5854 5853 5852 5851 5850 5849 5848 5847 5846 5845 5844 5842 5841 5841 5840 5840
5878 5877 5877 5877 5876 5875 5874 5873 5872 5871 5870 5869 5867 5866 5865 5864 5863 5862 5862 5860 5859 5858 5857 5857 5856 5855 5854 5853 5852 5851 5850 5848 5847 5846 5845 5844 5843 5842 5841 5840 5839 5838 5837
5875 5875 5875 5874 5874 5874 5872 5871 5870 5869 5869 5867 5866 5863 5862 5862 5861 5861 5860 5859 5857 5857 5856 5855 5854 5853 5852 5851 5850 5849 5848 5847 5846 5844 5843 5842 5841 5840 5839 5837 5836 5836 5835
5873 5873 5872 5872 5872 5871 5870 5869 5868 5867 5866 5865 5864 5862 5861 5860 5859 5859 5858 5857 5855 5854 5854 5853 5852 5851 5850 5849 5848 5847 5846 5845 5844 5842 5841 5840 5838 5837 5836 5835 5834 5833 5832
5870 5870 5870 5869 5869 5868 5867 5867 5866 5865 5864 5862 5861 5861 5859 5858 5857 5856 5855 5854 5853 5852 5852 5851 5850 5849 5848 5847 5846 5845 5844 5842 5841 5840 5838 5837 5836 5834 5834 5833 5832 5830 5829
5867 5867 5867 5867 5867 5866 5865 5865 5864 5863 5862 5860 5859 5858 5857 5856 5855 5854 5853 5852 5850 5850 5849 5848 5847 5846 5845 5844 5843 5842 5841 5840 5838 5837 5836 5834 5833 5832 5831 5830 5828 5827 5826
5864 5864 5864 5864 5864 5863 5862 5862 5861 5860 5859 5858 5857 5855 5854 5853 5852 5851 5850 5848 5847 5846 5846 5845 5844 5843 5842 5841 5841 5839 5838 5837 5836 5835 5833 5832 5830 5829 5828 5826 5825 5824 5823
5861 5860 5860 5861 5860 5860 5859 5858 5857 5856 5855 5854 5853 5852 5851 5850 5849 5848 5846 5845 5844 5843 5843 5842 5841 5840 5839 5838 5837 5836 5835 5834 5833 5831 5830 5829 5827 5825 5824 5823 5822 5820 5819
5857 5857 5856 5856 5856 5856 5855 5854 5853 5852 5851 5851 5850 5849 5848 5847 5846 5844 5843 5842 5841 5840 5839 5839 5838 5836 5836 5835 5834 5833 5831 5830 5829 5828 5826 5825 5823 5822 5820 5819 5817 5816 5815
5852 5853 5852 5852 5852 5852 5851 5850 5849 5848 5848 5847 5846 5845 5844 5843 5842 5841 5840 5839 5838 5837 5836 5835 5834 5833 5832 5831 5830 5829 5828 5826 5825 5824 5822 5821 5819 5817 5816 5814 5813 5811 5810
5848 5848 5848 5848 5848 5847 5846 5845 5845 5844 5843 5843 5842 5841 5840 5839 5838 5837 5836 5835 5834 5833 5832 5831 5830 5829 5828 5827 5826 5825 5824 5822 5821 5819 5818 5816 5814 5813 5811 5809 5808 5806 5805
5843 5843 5843 5843 5843 5842 5841 5841 5840 5840 5839 5838 5838 5836 5835 5834 5833 5832 5831 5830 5830 5829 5828 5827 5826 5825 5824 5823 5822 5821 5819 5818 5816 5815 5813 5811 5810 5808 5806 5804 5803 5802 5801
5838 5838 5838 5838 5838 5838 5837 5836 5836 5835 5834 5833 5833 5831 5830 5829 5828 5827 5826 5826 5825 5824 5823 5822 5821 5820 5819 5818 5817 5816 5815 5813 5812 5810 5808 5806 5805 5803 5801 5800 5798 5797 5795
5833 5833 5833 5833 5833 5832 5832 5831 5831 5830 5829 5828 5827 5826 5825 5824 5823 5823 5822 5820 5819 5819 5817 5817 5816 5815 5814 5813 5812 5811 5810 5808 5807 5805 5803 5801 5799 5798 5797 5795 5793 5792 5790
5827 5827 5827 5827 5827 5827 5826 5826 5825 5824 5824 5823 5821 5821 5820 5819 5818 5817 5816 5815 5814 5813 5812 5811 5810 5809 5809 5808 5807 5806 5804 5803 5801 5799 5798 5796 5794 5793 5791 5790 5788 5787 5785
5821 5821 5821 5821 5821 5820 5820 5820 5819 5818 5818 5817 5816 5815 5814 5813 5813 5812 5811 5810 5809 5808 5807 5806 5805 5804 5804 5803 5802 5800 5799 5798 5796 5794 5792 5790 5789 5787 5786 5784 5783 5781 5780
5814 5814 5815 5815 5814 5814 5813 5813 5813 5812 5811 5811 5810 5809 5808 5808 5807 5806 5805 5805 5804 5803 5802 5801 5800 5799 5799 5797 5796 5795 5793 5792 5790 5788 5787 5785 5783 5782 5781 5779 5777 5776 5774
5807 5807 5807 5807 5807 5807 5807 5806 5806 5805 5805 5804 5803 5802 5801 5801 5800 5800 5799 5799 5798 5797 5796 5795 5794 5794 5793 5791 5790 5789 5788 5786 5784 5783 5781 5779 5777 5776 5775 5773 5772 5770 5768
5799 5800 5800 5800 5800 5800 5800 5800 5800 5799 5799 5798 5797 5796 5795 5794 5793 5793 5792 5792 5791 5790 5790 5789 5788 5788 5787 5785 5784 5783 5782 5780 5778 5777 5775 5773 5772 5771 5769 5768 5766 5764 5762
5792 5792 5792 5792 5792 5793 5793 5793 5793 5793 5792 5791 5790 5789 5788 5787 5787 5786 5786 5785 5785 5784 5783 5782 5782 5781 5780 5779 5778 5777 5775 5774 5772 5770 5769 5767 5766 5765 5763 5761 5760 5758 5756
5784 5784 5784 5784 5785 5785 5786 5786 5786 5786 5785 5784 5783 5782 5781 5781 5780 5779 5779 5779 5778 5777 5777 5776 5775 5774 5774 5772 5771 5770 5769 5767 5766 5764 5763 5761 5759 5758 5757 5755 5753 5751 5749
5776 5776 5777 5777 5778 5778 5779 5779 5779 5779 5778 5778 5776 5775 5775 5774 5773 5773 5772 5772 5771 5771 5770 5769 5768 5768 5767 5765 5764 5763 5762 5761 5759 5758 5756 5755 5753 5752 5750 5749 5747 5744 5742
5769 5769 5770 5770 5770 5771 5771 5771 5771 5771 5771 5770 5769 5768 5768 5767 5767 5766 5765 5765 5764 5764 5763 5762 5762 5761 5760 5758 5757 5756 5755 5753 5752 5751 5750 5748 5746 5745 5743 5742 5740 5738 5736
5762 5762 5762 5763 5763 5763 5763 5764 5763 5763 5763 5763 5762 5761 5761 5760 5760 5759 5758 5758 5757 5756 5755 5755 5754 5753 5752 5751 5750 5749 5747 5746 5745 5744 5742 5740 5739 5738 5736 5734 5733 5731 5729
5754 5755 5755 5755 5755 5756 5756 5756 5755 5755 5755 5755 5754 5754 5754 5753 5752 5751 5750 5750 5749 5748 5748 5747 5746 5745 5745 5744 5743 5741 5740 5739 5738 5736 5735 5733 5732 5730 5729 5727 5725 5723 5721
5746 5747 5747 5748 5748 5748 5748 5748 5748 5747 5747 5747 5747 5746 5746 5746 5745 5744 5743 5742 5742 5741 5740 5739 5739 5738 5737 5736 5735 5734 5732 5731 5730 5728 5727 5726 5724 5723 5721 5720 5718 5716 5714